Regional Weather Roundup
Issued by NWS Bismarck, ND

Home | Current Version | Previous Version | Text Only | Print | Product List | Glossary On
Versions: 1 2 3 4 5 6 7 8 9 10 11 12 13 14 15 16 17 18 19 20 21 22 23 24 25 26 27 28 29 30 31 32 33 34 35 36 37 38 39 40 41 42 43 44 45 46 47 48 49 50
000
ASUS43 KBIS 251401
RWRBIS

NWR BROADCAST TEXT
NATIONAL WEATHER SERVICE BISMARCK ND
800 AM CST SUN JAN 25 2015

NOTE: "FAIR" INDICATES FEW OR NO CLOUDS BELOW 12,000 FEET WITH NO
SIGNIFICANT WEATHER AND/OR OBSTRUCTIONS TO VISIBILITY.


CITY           SKY/WX    TMP DP  RH WIND       PRES   REMARKS
WILLISTON      CLOUDY    32  28  85 W7        29.99S
MINOT          CLOUDY    23  20  88 CALM      29.98R
MINOT AFB      CLOUDY    21  21  99 NW8       29.99R WCI  11
BISMARCK       CLOUDY    35  32  88 NW8       29.98R
DICKINSON      CLOUDY    33  28  81 NW10      29.96F
GARRISON         N/A     33  31  92 NW13      29.95S
HETTINGER ARPT CLOUDY    33  27  78 NW13      30.00S
JAMESTOWN      CLOUDY    20  16  84 N5        29.98R WCI  13
CARRINGTON     CLOUDY    19  19 100 MISG      29.99R
CROSBY         CLOUDY    25  25 100 N6        29.97F WCI  18
HAZEN          CLOUDY    32  30  93 NW14      29.99R
LINTON         CLOUDY    32  32 100 N6        29.97R FOG
OAKES            N/A     23  23 100 N9        29.98S WCI  13
$$

CITY           SKY/WX    TMP DP  RH WIND       PRES   REMARKS
GRAND FORKS    PTCLDY    10   6  84 NW5       30.03R WCI   2
GRAND FORKS AF CLEAR      8   4  83 N6        30.04R WCI  -2
DEVILS LAKE    CLOUDY    16  10  79 CALM      29.99R
FARGO          MOCLDY    20  13  74 N8        30.00R WCI  10
GWINNER        SUNNY     21  21 100 N8        29.99S WCI  12
$$

CITY           SKY/WX    TMP DP  RH WIND       PRES   REMARKS
ABERDEEN       CLOUDY    28  24  85 N6        29.99R
MOBRIDGE       CLOUDY    37  33  85 NW12      29.95R
BUFFALO          N/A     27  22  81 W10       29.95F WCI  17
RAPID CITY     CLEAR     29  21  72 N12       30.02R WCI  19
GLASGOW        CLOUDY    30  26  85 SE7       29.98F
SIDNEY         CLOUDY    32  27  80 SW6       30.04S
WOLF POINT     MOCLDY    29  25  85 CALM      30.01S
GLENDIVE       PTCLDY    28  25  86 W6        30.02F
MILES CITY     CLOUDY    31  27  85 S5        30.03F
BAKER          CLEAR     26  22  84 W12       30.03F WCI  16
$$

CITY           SKY/WX    TMP DP  RH WIND       PRES   REMARKS
BILLINGS       PTCLDY    40  30  67 SW21      30.03F
GREAT FALLS    CLOUDY    50  37  61 SW20      29.95F
REGINA         FOG       25  25 100 S9        29.93F VSB 3/8 WCI  15
$$




USA.gov is the U.S. government's official web portal to all federal, state and local government web resources and services.